Location: Newark
(3.3223°N, 76.2348°W)
Time: 02:37:56
(UTC+00:00)

BEESAT 2 - Pass Details

Date: 23 January 2020
Orbit: 493 x 534 km, 64.9° (Epoch: 26 February)

Event Time Altitude Azimuth Distance (km) Brightness Sun altitude
Rises 00:59:53 0° 206° (SSW) 2,585 ? -25.4°
Reaches altitude 10° 01:02:02 10° 209° (SSW) 1,706 ? -25.9°
Enters shadow 01:04:35 39° 222° (SW) 760 ? -26.5°
